Wichita Jabara, KS

5:50 AM CDT on June 25, 2017 (GMT -0500)
Col Jabara

Weather History for KAAO - November, 2012

Change the Weather History Date:

Monday, November 26, 2012

  Actual Average (KIAB) Record (KIAB)
Temperature  
Mean Temperature 36 °F -  
Max Temperature 46 °F 49 °F 64 °F (2006)
Min Temperature 23 °F 31 °F 19 °F (1996)
Degree Days  
Heating Degree Days 30    
Moisture  
Dew Point 25 °F    
Average Humidity 69    
Maximum Humidity 92    
Minimum Humidity 37    
Precipitation  
Precipitation 0.00 in - - ()
Sea Level Pressure  
Sea Level Pressure 30.25 in    
Wind  
Wind Speed 14 mph (NNE)    
Max Wind Speed 28 mph    
Max Gust Speed 37 mph    
Visibility 10 miles    
Events      
Averages and records for this station are not official NWS values.
T = Trace of Precipitation, MM = Missing Value Source: NWS Daily Summary

Daily Weather History Graph

Daily Weather History Graph

Search for Another Location

Airport or City:

Trip Planner

Search our weather history database for the weather conditions in past years. The results will help you decide how hot, cold, wet, or windy it might be!

Date:

Astronomy

Nov. 26, 2012 Rise Set
Actual Time 7:21 AM CST 5:11 PM CST
Civil Twilight 6:52 AM CST 5:40 PM CST
Nautical Twilight 6:20 AM CST 6:12 PM CST
Astronomical Twilight 5:48 AM CST 6:43 PM CST
Moon 4:03 PM CST (11/26) 5:33 AM CST (11/26)
Length of Visible Light 10h 47m
Length of Day
9h 50m
Waxing Gibbous, 97% of the Moon is Illuminated
Nov 26
Waxing Gibbous
Nov 28
Full
Dec 6
Last Quarter
Dec 13
New
Dec 19
First Quarter

Hourly Weather History & Observations

Time (CST) Temp. Windchill Dew Point Humidity Pressure Visibility Wind Dir Wind Speed Gust Speed Precip Events Conditions
12:54 AM 36.0 °F 27.5 °F 28.9 °F 76% 29.98 in 10.0 mi NE 12.7 mph - N/A   Clear
1:54 AM 35.1 °F 26.4 °F 28.9 °F 78% 29.99 in 10.0 mi NE 12.7 mph - N/A   Clear
2:54 AM 34.0 °F 25.0 °F 28.0 °F 79% 30.00 in 10.0 mi NE 12.7 mph - N/A   Clear
3:54 AM 33.1 °F 24.4 °F 28.0 °F 82% 30.01 in 10.0 mi NNE 11.5 mph - N/A   Clear
4:54 AM 32.0 °F 22.5 °F 27.0 °F 82% 30.02 in 10.0 mi NNE 12.7 mph - N/A   Clear
6:54 AM 30.0 °F 21.1 °F 26.1 °F 85% 30.09 in 10.0 mi NNE 10.4 mph - N/A   Clear
7:54 AM 30.0 °F 20.5 °F 25.0 °F 82% 30.14 in 10.0 mi NNE 11.5 mph - N/A   Clear
8:54 AM 33.1 °F 22.6 °F 26.1 °F 75% 30.19 in 10.0 mi NNE 16.1 mph 23.0 mph N/A   Clear
9:54 AM 37.9 °F 27.6 °F 27.0 °F 65% 30.22 in 10.0 mi NNE 20.7 mph 26.5 mph N/A   Clear
10:54 AM 41.0 °F 31.1 °F 25.0 °F 53% 30.25 in 10.0 mi NNE 23.0 mph 32.2 mph N/A   Clear
11:54 AM 42.1 °F 32.3 °F 23.0 °F 47% 30.26 in 10.0 mi NNE 24.2 mph 32.2 mph N/A   Clear
12:54 PM 44.1 °F 34.8 °F 19.0 °F 37% 30.26 in 10.0 mi NNE 25.3 mph 34.5 mph N/A   Clear
1:54 PM 46.0 °F 37.0 °F 24.1 °F 42% 30.27 in 10.0 mi NNE 27.6 mph 36.8 mph N/A   Clear
2:54 PM 44.1 °F 35.4 °F 23.0 °F 43% 30.29 in 10.0 mi NNE 21.9 mph 32.2 mph N/A   Clear
3:54 PM 43.0 °F 33.3 °F 23.0 °F 45% 30.32 in 10.0 mi NNE 25.3 mph 35.7 mph N/A   Clear
4:54 PM 39.9 °F 31.4 °F 24.1 °F 53% 30.35 in 10.0 mi NNE 16.1 mph 25.3 mph N/A   Clear
5:54 PM 37.0 °F 29.3 °F 25.0 °F 62% 30.39 in 10.0 mi NNE 11.5 mph - N/A   Clear
6:54 PM 34.0 °F 26.0 °F 25.0 °F 70% 30.42 in 10.0 mi North 10.4 mph - N/A   Clear
7:54 PM 32.0 °F 24.2 °F 25.0 °F 75% 30.45 in 10.0 mi North 9.2 mph - N/A   Clear
8:54 PM 30.0 °F 23.2 °F 25.0 °F 82% 30.47 in 10.0 mi North 6.9 mph - N/A   Clear
9:54 PM 28.0 °F 24.2 °F 24.1 °F 85% 30.49 in 10.0 mi North 3.5 mph - N/A   Clear
10:54 PM 25.0 °F 16.3 °F 21.9 °F 88% 30.49 in 8.0 mi North 8.1 mph - N/A   Clear
11:54 PM 23.0 °F 14.7 °F 21.0 °F 92% 30.50 in 8.0 mi NNW 6.9 mph - N/A   Clear